User: anonymous   Login
Location: STAR School
(35.3054°N, 111.2976°W)
Time: 13:06:50
(UTC-07:00)
Language:

Explorer 7 - Orbit

View from above orbital plane
View from above orbital plane
View from above satellite
View from above satellite

Ground track
Ground track

The orbit data is extracted from the following two-line orbital elements,

1    22U 59009A   19143.87373788 -.00000121 +00000-0 +14211-4 0  9994
2    22 050.2833 134.2589 0140250 206.8795 152.4837 14.94864217411943
Epoch (UTC): 23 May 2019 20:58:10
Eccentricity: 0.0140250
inclination: 50.2833°
perigee height: 485 km
apogee height: 680 km
right ascension of ascending node: 134.2589°
argument of perigee: 206.8795°
revolutions per day: 14.94864217
mean anomaly at epoch: 152.4837°
orbit number at epoch: 41194

The dashed part of the orbit path shows where the satellite is in the earth's shadow,  

DLR